Theta_e
342 345 343 341 341 333 333 332 334 335 337 347 353 359 357 356 354 355 354 353 352 352 348 345 339 340 346 341 333 331 339 345 347 343 351 350 352 352 352 353 352 354 353 353
341 340 340 338 334 333 332 332 337 339 335 340 349 358 357 355 356 354 354 354 354 353 352 349 347 344 345 343 341 340 342 347 347 351 350 350 348 351 351 351 350 355 355 354
337 337 337 336 333 332 332 330 330 331 341 341 351 358 359 355 355 354 353 353 352 352 352 351 349 349 346 341 341 342 346 344 349 348 349 350 351 353 354 352 352 353 355 355
334 335 335 333 330 330 329 330 330 329 331 334 347 365 350 357 356 355 353 352 351 350 350 350 351 349 346 342 340 344 345 347 350 352 354 354 355 354 352 351 351 351 352 356
332 333 331 330 330 330 329 329 329 331 333 334 345 355 360 354 358 355 354 352 351 350 349 348 348 347 344 342 342 346 344 345 348 352 352 355 354 355 353 353 352 352 354 353
335 336 331 330 330 330 330 329 330 333 333 335 349 352 356 355 358 356 353 352 351 350 350 348 346 346 345 343 342 345 348 350 349 353 354 354 356 354 356 355 354 355 358 358
334 332 331 330 330 331 330 330 332 336 337 340 344 345 348 345 340 353 351 352 351 350 351 351 350 347 346 344 344 344 346 350 352 352 354 358 352 358 356 357 356 357 357 355
333 332 330 332 332 333 332 332 336 340 338 340 345 347 351 345 343 349 349 349 350 350 351 351 352 351 349 347 346 346 347 351 354 355 354 353 359 356 358 358 358 356 355 355
335 336 333 333 332 333 333 334 335 333 334 337 346 348 348 346 346 349 348 349 348 348 349 350 349 349 351 351 350 350 350 353 355 355 356 357 358 361 359 357 356 357 354 353
332 336 335 333 333 332 331 333 332 333 335 338 342 352 354 351 350 347 346 346 346 345 345 345 346 349 350 351 352 351 351 356 356 355 356 357 359 359 360 357 358 356 354 356
331 331 334 336 336 336 335 334 333 334 334 339 343 352 345 350 348 349 346 345 346 346 344 346 351 353 352 349 351 351 353 357 356 353 353 355 356 356 358 359 357 354 353 349
331 332 334 336 336 334 332 330 331 335 336 334 339 353 340 346 346 350 350 345 346 347 348 352 354 352 352 352 351 351 350 350 350 350 352 351 353 353 352 352 353 355 357 357
334 335 333 336 336 337 333 332 332 331 332 336 345 351 340 344 346 347 348 349 354 354 354 354 353 357 356 352 351 350 350 350 350 350 350 350 350 349 348 349 356 356 357 360
332 333 332 333 338 337 336 333 331 331 332 333 343 350 345 343 344 346 348 352 353 355 356 354 355 357 356 354 355 353 352 352 353 353 355 353 354 353 353 353 352 355 357 359
332 331 331 332 333 332 332 331 331 332 333 333 338 344 347 347 348 348 354 354 354 355 354 355 354 355 355 355 354 353 356 357 360 358 357 359 359 360 359 359 359 358 360 359
332 333 332 332 333 332 331 331 330 330 330 331 332 332 335 349 349 353 354 354 355 353 353 356 358 358 356 357 357 358 359 358 357 357 359 359 360 360 360 360 360 361 360 358
334 331 333 333 333 334 334 333 333 332 331 330 330 331 337 345 346 348 345 354 355 356 356 355 355 355 354 356 355 355 356 357 358 357 355 355 355 356 356 356 355 356 357 356
333 334 334 334 335 337 335 334 332 332 332 331 330 332 334 338 344 345 344 344 359 359 359 359 355 353 350 348 349 351 351 350 349 346 345 345 345 348 351 351 353 354 352 352
332 333 334 337 336 334 334 333 332 332 332 332 330 330 333 339 346 347 348 356 358 359 354 351 346 345 346 345 344 341 341 341 341 341 341 340 340 341 341 341 342 346 350 352
333 333 335 337 335 335 335 334 332 332 333 332 332 332 334 344 349 356 354 354 353 351 346 344 344 343 340 340 340 340 340 339 338 337 337 337 338 338 338 338 340 341 342 344
339 340 338 336 336 335 333 333 333 333 336 337 334 336 340 345 345 353 353 353 349 344 342 343 340 339 338 337 337 338 338 337 336 335 335 335 334 333 332 333 332 334 336 338
342 345 339 339 344 342 334 333 334 334 335 336 336 336 341 351 352 353 349 344 344 344 340 339 338 337 337 336 336 336 338 336 334 332 333 333 333 334 333 332 332 334 334 334
336 337 341 341 339 341 336 334 334 333 333 340 338 338 343 348 349 346 344 345 344 341 339 338 338 338 337 336 335 335 335 334 332 333 334 333 333 333 332 331 331 333 332 334
335 336 337 342 338 336 335 335 334 333 335 336 337 337 342 345 345 344 342 343 343 339 338 338 338 338 337 335 333 332 332 332 334 334 334 333 333 332 331 330 330 330 330 329
338 340 343 340 341 337 336 336 335 334 333 335 337 337 341 342 345 343 343 344 342 339 336 336 337 337 335 333 332 333 333 333 333 333 332 332 330 329 330 331 330 329 328 326
337 339 338 341 342 343 340 336 336 335 334 335 335 337 338 341 343 343 343 342 340 339 338 337 336 335 333 333 334 334 332 332 331 331 331 328 328 328 329 328 328 328 326 326
Wind_Speed
15 14 12 23 21 10 7 7 12 11 5 6 11 14 11 12 12 13 13 14 15 14 16 20 24 23 18 26 30 32 19 17 14 19 19 13 12 12 12 16 11 3 7 10
15 12 19 19 7 10 8 9 14 11 6 3 9 16 11 9 11 12 14 14 16 17 19 25 26 28 26 26 26 22 21 16 19 17 13 12 14 11 13 8 9 11 8 10
18 10 18 15 11 10 13 10 9 2 13 12 15 13 12 9 8 12 14 16 17 18 20 19 24 28 29 29 28 28 24 21 19 18 17 14 12 13 8 12 9 10 12 11
13 14 6 8 11 7 12 6 7 10 12 11 19 7 3 13 10 13 15 15 16 16 16 18 23 29 29 31 31 29 26 25 21 19 16 17 15 14 13 12 15 16 18 15
16 10 10 8 10 9 12 9 9 12 12 18 25 11 5 4 10 14 16 17 17 17 18 19 18 24 26 30 31 31 31 29 23 24 22 15 17 14 17 21 18 17 17 19
12 16 5 9 7 9 11 11 15 17 13 12 21 14 9 8 19 18 18 19 19 20 18 20 26 27 27 30 33 28 31 30 28 24 24 23 17 19 16 17 12 20 16 16
17 15 13 2 13 15 12 15 9 6 3 10 18 10 8 20 14 19 22 20 18 21 19 18 21 23 26 31 32 31 32 32 30 29 24 23 27 18 20 18 17 15 17 16
14 11 9 11 11 11 9 10 4 2 9 8 13 7 5 11 15 26 23 23 20 18 19 18 17 23 28 30 30 31 30 32 32 30 28 27 23 25 22 20 18 20 19 11
8 5 4 4 6 9 13 8 12 14 19 9 9 11 16 12 32 36 25 25 21 17 19 20 19 23 24 31 31 30 28 33 32 30 28 26 25 22 21 23 23 26 23 17
11 8 10 11 9 12 12 12 12 7 4 9 8 6 10 22 13 13 14 15 13 10 9 8 7 21 23 23 29 29 30 31 31 27 25 24 24 25 25 26 24 21 19 12
13 14 6 13 4 12 3 9 10 11 10 4 4 7 9 9 20 17 6 13 12 12 10 7 8 11 9 5 19 24 21 21 24 24 22 23 24 26 26 26 25 26 26 28
11 13 7 10 11 3 10 10 13 10 7 10 6 4 5 16 13 15 21 12 13 11 12 10 9 10 10 8 8 16 20 18 17 17 18 19 20 23 22 28 26 24 24 21
10 7 8 10 13 15 8 3 9 13 12 4 5 3 10 4 19 12 21 7 11 11 13 11 11 9 11 12 9 9 8 12 15 19 21 23 23 22 26 26 18 23 22 20
6 15 16 12 14 10 8 2 5 10 11 11 12 11 11 14 19 27 19 11 13 12 11 12 13 9 12 12 13 11 13 13 11 5 6 16 20 15 16 18 25 22 18 18
7 16 17 18 7 5 7 12 11 11 13 13 10 17 23 26 24 18 22 18 15 14 13 12 13 11 12 10 10 5 11 11 11 8 5 5 3 3 4 6 8 7 8 14
13 15 14 15 12 10 13 7 10 12 13 12 12 11 6 29 25 19 19 19 16 14 14 14 13 11 14 11 9 11 11 8 8 8 9 8 7 6 5 7 8 8 9 13
9 12 14 12 8 10 10 9 10 11 11 12 11 11 10 13 12 11 6 15 16 15 14 12 11 12 14 13 10 9 8 9 11 11 10 9 6 6 4 6 8 7 9 12
14 11 9 10 11 10 9 10 10 11 12 13 15 12 7 7 10 7 4 8 18 17 13 10 10 16 17 15 13 13 11 13 13 13 11 10 10 9 9 8 7 8 8 10
18 14 11 8 11 13 13 9 13 6 11 7 10 11 5 11 12 8 10 16 17 16 14 14 16 17 16 14 13 14 12 11 10 9 8 7 8 8 10 11 12 12 12 11
19 17 12 11 15 17 13 13 8 8 10 13 11 3 4 13 7 10 13 16 16 18 19 19 16 15 14 13 11 11 9 9 9 8 8 8 9 9 11 12 13 12 14 15
15 14 15 13 10 14 12 16 4 2 5 10 3 7 10 9 9 19 18 16 18 19 20 18 16 16 13 10 9 9 7 7 6 7 8 8 8 10 11 10 13 14 14 16
18 13 12 11 14 20 18 14 15 3 3 5 1 2 9 16 20 21 18 16 14 16 19 17 16 15 11 9 7 5 6 5 6 7 7 7 7 7 8 11 13 13 14 14
18 17 12 12 10 9 17 15 7 2 8 5 7 5 12 18 19 18 15 16 14 18 18 18 17 14 11 8 6 4 3 4 5 6 7 7 6 7 7 9 14 14 12 11
19 16 16 14 13 11 4 4 1 3 10 4 3 6 15 18 20 18 15 14 13 16 17 19 17 15 11 6 4 4 5 5 5 6 7 7 8 3 5 10 8 12 12 14
14 14 13 12 12 13 12 6 8 11 9 6 8 9 16 17 21 19 15 13 13 14 14 12 14 13 9 5 4 4 4 5 6 7 7 10 13 12 12 11 12 5 3 8
14 13 10 5 16 10 8 5 10 8 6 9 10 12 8 15 20 20 16 16 16 14 16 14 14 12 8 6 5 5 4 6 7 8 10 11 9 12 13 13 15 10 3 12
Wind_Direction
289 250 73 272 271 312 301 286 116 120 161 206 134 132 147 148 144 151 163 173 174 179 188 173 182 181 173 191 199 204 209 203 202 211 210 215 230 220 236 234 223 223 169 180
261 258 158 234 292 276 281 277 118 128 156 198 136 133 143 166 159 168 169 178 180 174 190 180 183 193 192 199 205 204 215 209 210 225 207 211 221 243 238 224 223 191 203 183
269 43 300 294 281 294 281 353 36 351 167 195 113 115 143 168 192 172 178 184 186 177 175 181 183 191 191 199 196 202 197 197 214 207 210 213 230 238 262 227 215 216 213 228
272 286 216 282 278 309 300 41 306 254 240 229 168 153 256 160 208 188 186 188 180 174 169 177 181 190 190 194 197 199 192 194 206 213 223 210 205 215 237 235 233 220 213 211
260 231 240 280 311 347 293 319 268 259 262 264 194 117 334 157 210 217 208 186 180 182 178 175 186 185 191 189 194 194 196 201 204 210 223 229 233 224 229 237 236 204 207 208
254 271 303 288 322 254 258 280 260 252 235 243 80 95 224 227 202 208 211 189 186 177 185 177 184 189 193 188 195 198 190 197 202 208 213 225 234 235 254 256 267 221 233 209
217 228 222 213 250 241 224 237 261 257 336 311 136 132 184 223 219 213 194 191 184 176 183 191 183 189 191 195 196 198 196 196 200 204 210 222 230 231 244 259 252 261 243 235
237 196 183 187 256 325 302 311 201 242 294 232 82 145 173 138 296 233 195 180 175 181 176 194 195 190 190 197 201 201 201 195 195 199 207 218 228 232 238 249 258 266 269 270
41 186 208 224 293 291 304 297 334 290 222 218 111 91 2 337 212 244 180 169 156 177 180 184 192 202 199 194 198 198 202 189 192 198 204 211 222 224 233 239 248 250 262 263
286 201 248 170 210 228 261 313 301 299 340 333 104 80 143 255 309 126 143 105 109 136 143 158 174 193 192 198 190 191 193 182 187 195 203 213 218 226 232 243 251 251 253 272
302 295 189 254 350 332 271 275 303 337 300 221 196 94 161 105 266 329 24 127 128 122 112 94 71 52 57 175 176 176 170 172 182 198 209 212 219 224 229 233 241 248 254 255
246 297 304 226 211 309 285 271 284 279 326 323 343 126 244 234 58 77 281 260 139 118 106 108 97 101 104 82 100 159 172 190 198 216 217 231 230 229 232 233 236 239 241 245
317 278 271 340 5 344 286 317 331 301 304 283 5 291 297 54 107 220 241 177 116 117 117 122 118 96 104 112 113 129 141 176 208 209 217 217 224 227 239 250 248 234 236 236
314 283 297 285 167 200 306 275 313 314 301 9 83 118 214 195 174 211 236 180 139 136 153 129 124 130 112 123 114 142 162 161 205 215 226 221 206 226 220 238 243 240 241 235
253 265 277 282 337 353 301 309 319 310 315 320 140 157 187 201 204 249 182 149 156 148 136 152 136 126 131 108 121 126 76 55 42 60 52 30 351 344 328 319 294 270 253 244
248 259 274 294 300 300 288 276 285 289 295 295 302 317 49 159 188 146 151 147 146 161 151 130 125 144 124 117 101 73 57 71 69 70 51 39 26 6 314 299 293 290 282 266
207 251 256 264 277 311 296 247 251 269 260 271 283 295 88 123 144 153 159 151 153 131 116 131 144 124 120 114 105 105 94 88 84 79 60 47 28 14 8 311 313 301 291 288
291 242 255 284 300 269 274 307 342 324 316 316 310 312 150 78 101 91 147 194 122 123 130 120 114 117 110 105 92 97 87 77 74 65 56 42 28 15 0 344 317 298 292 286
266 274 275 252 244 256 267 260 277 293 327 250 280 272 115 115 107 91 99 106 110 109 121 133 107 98 110 112 97 87 83 77 66 53 42 25 12 0 351 345 343 334 330 298
249 253 260 256 257 272 292 312 34 8 294 279 258 201 153 128 157 132 118 117 126 138 134 115 118 118 108 104 108 99 85 66 41 19 7 357 352 348 338 331 330 328 325 317
246 230 246 248 257 267 259 276 229 299 320 354 194 138 157 161 201 142 139 139 143 131 128 131 120 103 98 98 108 98 84 46 10 355 346 342 342 335 330 341 333 329 322 312
257 261 225 240 249 260 276 260 242 253 271 253 292 216 131 101 116 130 136 133 128 114 117 119 119 114 99 87 90 82 65 18 358 347 339 341 337 336 340 336 325 317 309 303
256 259 262 228 247 225 239 257 264 260 252 342 146 170 135 131 135 135 139 133 127 144 146 135 128 123 118 101 78 61 54 14 357 342 344 329 317 307 312 319 311 297 332 336
263 264 264 265 245 240 195 298 97 305 327 187 260 204 154 145 142 141 143 144 150 153 143 146 152 143 125 114 83 53 37 14 350 340 325 312 295 284 350 321 336 1 0 9
296 314 295 261 273 260 272 307 204 202 246 272 259 289 172 163 151 150 150 146 142 141 134 131 116 113 115 105 87 58 24 9 1 354 333 9 11 7 342 2 356 308 4 1
287 289 299 344 352 313 254 266 280 229 250 255 235 241 249 162 149 147 142 141 134 132 117 117 120 121 117 111 107 75 19 36 22 352 13 26 9 6 8 4 353 358 5 355